EW0727 Falmouth VA US current weather conditions

sailwx.info

Wind from 044 at 0 knots gusting 3

Air temperature 31.7° C
Dewpoint 24.3° C

Last reported at 2020-Aug-10 16:01 UTC.
Time now 2020-Aug-10 16:47 UTC

Location: N 38°22' W 077°30'.
View on Google Maps.

See reports from other nearby stations

  
Tides and Currents Weather Stations Pressure Air Temp Water Temp Dewpoint Dewpoint Depression Visibility Wind Speed Wind Dir Waves Ship Positions
date/time (UTC)wind fromknots sea level pressurealtimeterstation pressurevisibilityair tempwater tempwave heightnotes
2020-Aug-10 16:01 044 0 gusting 3 31.7
2020-Aug-10 15:47 082 31.7
2020-Aug-10 15:32 195 1 gusting 4 32.2
2020-Aug-10 15:16 120 0 gusting 3 32.2
2020-Aug-10 15:01 034 31.7
2020-Aug-10 14:45 098 0 gusting 3 31.7
2020-Aug-10 14:31 147 31.1
2020-Aug-10 14:17 226 30.6
2020-Aug-10 14:01 125 30.0
2020-Aug-10 13:45 030 28.9
2020-Aug-10 13:30 242 28.9
2020-Aug-10 13:16 265 27.8
2020-Aug-10 13:00 032 27.2
2020-Aug-10 12:45 288 27.2
2020-Aug-10 12:30 142 27.2
2020-Aug-10 12:15 101 26.1
2020-Aug-10 12:00 011 25.0
2020-Aug-10 11:45 011 25.6
2020-Aug-10 11:30 012 23.9
2020-Aug-10 11:15 011 22.8
2020-Aug-10 11:00
2020-Aug-10 10:49
2020-Aug-10 10:45
2020-Aug-10 10:32
2020-Aug-10 10:16
2020-Aug-10 10:01
2020-Aug-10 09:45 207 21.7
2020-Aug-10 09:31 207 21.7
2020-Aug-10 09:16 207 21.7
2020-Aug-10 09:01 207 21.7
2020-Aug-10 08:45 207 21.7
2020-Aug-10 08:30 207 21.7
2020-Aug-10 08:16 207 21.7
2020-Aug-10 08:01 207 21.7
2020-Aug-10 07:46 207 21.7
2020-Aug-10 07:31 207 22.2
2020-Aug-10 07:16 207 22.2
2020-Aug-10 07:00 207 22.2
2020-Aug-10 06:45 207 22.2
2020-Aug-10 06:31 207 22.2
2020-Aug-10 06:15 207 22.2
2020-Aug-10 06:01 207 22.8
2020-Aug-10 05:45 096 22.8
2020-Aug-10 05:30 096 22.8
2020-Aug-10 05:16 096 22.8
2020-Aug-10 05:00 096 22.8
2020-Aug-10 04:45 096 23.3
2020-Aug-10 04:30 232 23.9
2020-Aug-10 04:16 232 23.9
2020-Aug-10 04:00 232 24.4
2020-Aug-10 03:45 217 24.4
2020-Aug-10 03:30 222 24.4
2020-Aug-10 03:15 225 25.0
2020-Aug-10 03:00 245 25.0
2020-Aug-10 02:45 210 25.6
2020-Aug-10 02:30 210 25.6
2020-Aug-10 02:15 229 25.6
2020-Aug-10 02:00 225 25.6
2020-Aug-10 01:45 222 26.1
2020-Aug-10 01:30 222 26.1
2020-Aug-10 01:15 135 26.1
2020-Aug-10 01:00 186 26.1
2020-Aug-10 00:45 140 26.1
2020-Aug-10 00:30 142 26.7
2020-Aug-10 00:15 205 27.2
2020-Aug-10 00:02 301 27.8
2020-Aug-09 23:48 128 28.3
2020-Aug-09 23:31 019 29.4
2020-Aug-09 23:17 077 1 gusting 3 30.0
2020-Aug-09 23:01 041 1 gusting 4 30.6
2020-Aug-09 22:46 056 31.7
2020-Aug-09 22:32 075 32.2
2020-Aug-09 22:16 338 32.8
2020-Aug-09 22:02 281 1 gusting 4 33.3
2020-Aug-09 21:46 229 32.8
2020-Aug-09 21:32 146 1 gusting 6 33.9
2020-Aug-09 21:18 236 34.4
2020-Aug-09 21:01 275 35.0
2020-Aug-09 20:47 294 33.3
2020-Aug-09 20:32 148 0 gusting 4 33.9
2020-Aug-09 20:17 170 34.4
2020-Aug-09 20:02 167 33.9
2020-Aug-09 19:47 136 0 gusting 5 34.4
2020-Aug-09 19:31 236 2 gusting 6 33.3
2020-Aug-09 19:16 215 33.3
2020-Aug-09 19:00 266 32.2
2020-Aug-09 18:45 124 0 gusting 6 32.2
2020-Aug-09 18:31 225 0 gusting 3 31.1
2020-Aug-09 18:16 191 32.2
2020-Aug-09 18:00 231 32.2
2020-Aug-09 17:45 257 32.8
2020-Aug-09 17:30 167 0 gusting 8 32.2
2020-Aug-09 17:15 281 1 gusting 6 31.7
2020-Aug-09 17:00 212 1 gusting 6 31.7
2020-Aug-09 16:45 190 0 gusting 6 31.7
2020-Aug-09 16:30 085 0 gusting 6 32.2
2020-Aug-09 16:15 212 32.2
2020-Aug-09 16:00 162 0 gusting 4 31.7
2020-Aug-09 15:45 176 2 gusting 6 30.6
2020-Aug-09 15:30 140 0 gusting 4 29.4
2020-Aug-09 15:15 246 30.0
2020-Aug-09 15:00 250 30.0
2020-Aug-09 14:46 179 0 gusting 3 29.4
2020-Aug-09 14:31 101 28.9
2020-Aug-09 14:17 120 28.3
2020-Aug-09 14:01 194 1 gusting 4 29.4
2020-Aug-09 13:46 187 28.3
2020-Aug-09 13:32 193 27.8
2020-Aug-09 13:16 287 27.2
2020-Aug-09 13:01 217 26.1
2020-Aug-09 12:45 217 25.0
2020-Aug-09 12:31 290 23.3
2020-Aug-09 12:16 225 22.2
2020-Aug-09 12:00 225 22.2
2020-Aug-09 11:45 225 21.7
2020-Aug-09 11:30 225 21.7
2020-Aug-09 11:15 231 21.1
2020-Aug-09 11:00
2020-Aug-09 10:45
2020-Aug-09 10:30
2020-Aug-09 10:15
2020-Aug-09 10:00
2020-Aug-09 09:45
2020-Aug-09 09:30
2020-Aug-09 09:16
2020-Aug-09 09:00 212 21.1
2020-Aug-09 08:45 212 21.1
2020-Aug-09 08:30 212 21.1
2020-Aug-09 08:15 212 21.1
2020-Aug-09 08:00 212 21.7
2020-Aug-09 07:45 212 21.1
2020-Aug-09 07:30 212 21.7
2020-Aug-09 07:15 212 21.7
2020-Aug-09 07:00 212 21.7
2020-Aug-09 06:45 212 21.7
2020-Aug-09 06:30 212 21.7
2020-Aug-09 06:16 212 21.7
2020-Aug-09 06:01 212 21.7
2020-Aug-09 05:48 145 21.7
2020-Aug-09 05:31 108 21.7
2020-Aug-09 05:16 107 21.7
2020-Aug-09 05:03 107 21.7
2020-Aug-09 04:47 107 21.7
2020-Aug-09 04:32 108 22.2
2020-Aug-09 04:16 108 21.7
2020-Aug-09 04:01 107 22.2
2020-Aug-09 03:47 107 22.2
2020-Aug-09 03:32 108 22.2
2020-Aug-09 03:16 107 22.8
2020-Aug-09 03:00 108 22.8
2020-Aug-09 02:46 108 22.8
2020-Aug-09 02:31 108 22.8
2020-Aug-09 02:16 108 23.3
2020-Aug-09 02:01 108 23.3
2020-Aug-09 01:45 108 22.8
2020-Aug-09 01:30 108 23.3
2020-Aug-09 01:16 108 23.9
2020-Aug-09 01:01 108 24.4
2020-Aug-09 00:45 108 24.4
2020-Aug-09 00:31 108 24.4
2020-Aug-09 00:16 107 25.0
2020-Aug-09 00:01 108 26.1
2020-Aug-08 23:46 108 26.7
2020-Aug-08 23:31 143 27.8
2020-Aug-08 23:16 084 27.8
2020-Aug-08 23:01 089 0 gusting 2 28.9
2020-Aug-08 22:45 081 30.0
2020-Aug-08 22:16 077 0 gusting 3 29.4
2020-Aug-08 22:01 015 0 gusting 3 28.9
2020-Aug-08 21:45 073 0 gusting 3 28.9
2020-Aug-08 21:30 006 28.9
2020-Aug-08 21:15 019 0 gusting 3 28.9
2020-Aug-08 21:01 073 1 gusting 3 28.3
2020-Aug-08 20:46 048 2 gusting 4 28.3
2020-Aug-08 20:30 025 4 gusting 6 28.3
2020-Aug-08 20:15 297 1 gusting 4 30.0
2020-Aug-08 20:00 098 0 gusting 3 28.9
2020-Aug-08 19:45 349 1 gusting 6 28.3
2020-Aug-08 19:30 023 0 gusting 6 30.0
2020-Aug-08 19:15 316 0 gusting 3 28.9
2020-Aug-08 19:00 340 1 gusting 4 27.8
2020-Aug-08 18:45 327 0 gusting 1 28.3
2020-Aug-08 18:30 315 1 gusting 3 27.8
2020-Aug-08 18:15 005 0 gusting 3 27.8
2020-Aug-08 18:01 321 0 gusting 4 27.8
2020-Aug-08 17:45 006 27.8
2020-Aug-08 17:30 212 28.3
2020-Aug-08 17:15 313 27.2
2020-Aug-08 17:00 082 26.7
2020-Aug-08 16:45 321 0 gusting 5 26.1
2020-Aug-08 16:30 342 1 gusting 5 26.1
2020-Aug-08 16:15 021 1 gusting 4 25.6
2020-Aug-08 16:00 300 0 gusting 3 24.4